Wind_Speed
39 39 40 40 41 41 42 42 42 42 41 42 43 44 45 45 46 47 48 50 50 49 50 50 49 49 49 50 49 50 50 49 48 46 44 42 42 42
39 39 40 41 41 41 42 42 42 42 42 42 43 44 45 46 47 48 49 50 50 51 52 51 51 50 51 51 50 50 49 47 45 43 41 41 41 41
40 40 40 41 42 42 42 42 42 42 42 41 42 43 45 46 47 49 50 50 51 52 52 52 51 51 51 49 48 47 45 43 41 41 41 41 40 40
40 41 41 41 41 41 41 41 41 41 42 41 42 44 45 46 48 49 50 51 52 53 52 52 51 50 48 46 44 43 43 41 40 40 40 40 40 39
40 40 40 40 41 40 40 40 41 41 41 42 42 44 45 46 48 49 49 51 52 52 51 49 48 46 44 43 43 42 41 40 40 40 39 39 38 37
38 39 40 40 39 39 40 40 41 41 42 42 43 44 45 47 48 48 49 50 49 48 47 45 43 43 42 43 42 41 39 39 38 38 37 37 37 36
39 39 39 39 39 39 40 40 41 42 42 42 43 43 45 47 48 49 49 47 45 44 42 42 41 41 42 41 40 40 39 38 37 36 35 34 35 34
39 39 39 38 38 39 40 40 40 41 42 42 43 44 46 48 48 48 47 44 41 41 40 41 42 42 42 41 40 39 38 37 36 34 33 32 32 31
38 38 37 38 38 39 39 40 40 41 41 43 44 46 47 48 47 45 43 41 40 40 41 41 42 41 40 39 38 37 36 35 33 31 30 30 29 28
37 37 37 39 39 39 39 39 39 40 42 44 45 46 46 46 44 43 40 40 41 42 41 40 39 39 38 38 37 35 34 32 30 29 29 28 28 26
36 36 37 38 38 39 39 39 40 41 42 44 45 45 44 43 42 41 40 40 40 40 39 39 37 36 35 35 34 33 31 29 29 28 28 27 27 25
36 36 36 37 38 39 40 40 40 41 42 43 42 42 42 41 41 40 40 40 39 39 38 37 36 34 32 31 31 30 29 28 28 28 27 26 25 25
35 36 36 37 38 39 39 40 40 41 41 41 40 40 40 40 40 40 39 39 38 37 37 35 34 33 32 30 28 28 28 27 27 27 26 24 24 24
35 35 36 37 37 38 38 39 39 39 39 39 39 39 39 39 38 38 37 37 36 35 35 34 33 31 29 27 26 26 26 26 25 25 24 23 23 23
35 35 35 36 37 37 37 37 38 38 38 38 38 39 39 38 36 35 35 34 34 34 33 32 30 29 27 26 25 25 24 24 23 22 22 22 21 21
34 34 34 35 35 35 35 35 36 36 37 37 37 38 37 36 34 33 32 32 32 32 31 30 28 27 25 25 24 24 23 22 20 20 20 20 20 19
34 33 34 35 34 33 33 34 35 35 36 36 36 36 35 33 32 32 31 30 30 29 28 27 26 25 24 23 22 22 21 20 20 19 18 18 17 17
32 33 33 32 32 32 32 33 34 34 34 34 34 33 32 31 30 30 28 28 27 26 25 24 23 22 22 21 20 19 18 18 18 17 17 17 16 15
31 31 31 31 31 31 32 32 32 32 32 31 31 30 30 29 27 26 25 25 24 24 23 22 20 20 19 18 16 16 16 16 16 16 16 16 14 13
30 30 30 29 29 29 30 30 30 30 29 29 28 28 27 25 23 23 22 22 22 21 20 19 19 18 17 16 15 15 15 15 14 15 15 14 13 13
28 28 28 28 28 28 28 28 28 27 27 26 26 25 23 22 20 20 20 20 20 19 18 17 17 16 15 14 14 13 13 13 14 14 13 13 12 12
27 27 27 27 27 27 27 26 25 25 25 24 23 22 21 20 19 18 18 18 18 18 17 15 14 13 13 12 12 11 11 12 12 12 12 12 12 12
25 25 25 25 26 26 25 24 24 23 23 23 22 21 19 18 18 18 17 17 17 15 13 12 11 10 10 10 10 11 11 11 11 11 11 12 13 13
Wind_Direction
279 281 282 283 285 287 289 290 292 294 295 297 299 301 303 304 305 307 308 309 310 310 309 309 309 309 308 308 307 306 305 303 302 301 299 297 295 294
278 279 281 283 285 287 288 290 292 294 296 298 299 301 303 305 306 307 308 309 310 310 310 310 309 308 308 307 307 307 307 305 303 301 301 298 296 295
277 279 281 284 286 287 288 290 292 294 296 298 300 302 304 305 306 307 309 309 309 310 310 309 309 308 308 308 308 308 307 306 304 303 301 300 297 297
277 278 281 284 286 287 288 290 292 295 297 299 300 302 304 305 306 308 309 310 310 310 309 309 309 309 310 310 310 309 308 306 305 304 303 302 300 299
277 278 281 283 285 287 289 290 292 295 297 299 301 302 304 306 307 309 310 310 310 310 310 310 311 312 312 311 312 311 309 307 306 305 306 307 305 302
276 279 282 284 286 287 289 291 292 295 297 299 301 302 304 306 308 309 311 311 311 311 312 313 314 314 314 313 313 312 312 311 309 309 309 309 308 305
277 279 282 284 285 287 289 290 292 295 297 299 300 302 305 307 308 310 311 312 312 313 314 315 316 316 315 315 315 314 313 312 311 312 312 311 311 310
276 278 281 283 285 287 289 290 293 296 297 299 301 304 307 308 309 311 312 312 312 313 314 315 316 315 315 315 315 315 314 314 313 314 313 313 314 313
276 278 280 282 285 288 289 290 293 297 299 301 303 306 308 309 310 311 312 312 313 314 315 316 316 316 316 316 316 316 316 316 316 316 316 317 317 315
276 278 280 283 285 287 289 292 294 297 300 302 304 307 308 309 310 311 311 312 313 314 316 316 316 316 317 317 318 317 318 319 318 319 319 320 321 319
276 277 280 283 285 287 289 292 294 297 300 303 305 307 309 309 310 311 311 312 312 314 315 316 316 316 317 317 317 318 320 321 321 322 322 322 321 322
274 277 280 283 286 287 290 293 295 297 300 303 305 308 309 310 310 311 311 311 313 314 315 316 315 315 316 315 315 317 320 322 324 325 326 326 325 325
274 278 281 283 286 288 290 293 295 298 301 303 306 308 310 310 310 311 312 312 313 314 316 316 316 315 316 316 315 316 319 322 324 326 328 328 329 329
274 277 280 283 286 289 291 294 296 299 301 304 306 309 310 310 311 312 312 312 313 315 317 317 317 317 318 317 317 319 322 325 325 327 330 331 331 332
274 278 280 284 286 290 293 295 296 299 302 305 306 308 310 310 311 312 312 312 314 316 318 319 320 320 320 319 319 321 324 327 328 330 332 333 335 336
275 278 280 283 286 289 292 295 297 300 303 305 306 308 309 309 310 310 310 311 313 315 317 320 321 322 323 322 322 323 327 330 332 333 335 337 338 339
274 278 281 284 287 290 292 295 298 301 304 305 306 308 309 308 309 310 311 312 313 315 317 319 321 324 325 325 324 326 330 333 335 337 339 341 343 345
275 278 280 283 286 289 292 295 299 302 304 306 307 308 308 308 309 310 311 313 314 316 318 319 321 323 325 327 327 330 334 337 339 342 344 346 350 354
275 277 280 283 285 288 292 296 300 303 305 306 307 308 309 309 309 310 313 315 316 319 321 322 323 325 327 329 330 331 335 339 343 345 348 353 359 4
276 276 278 282 285 288 292 296 300 302 305 307 308 310 311 310 309 312 315 317 320 322 323 325 327 328 330 333 334 335 338 343 348 352 355 1 6 11
274 274 277 282 285 288 292 295 298 301 304 307 310 311 312 311 311 313 316 319 321 324 326 328 330 331 334 337 338 340 344 349 356 0 5 9 12 15
271 274 279 282 285 288 291 294 296 300 304 306 309 310 311 311 311 312 316 319 321 324 327 330 332 336 340 342 345 348 351 356 2 8 15 20 22 25
272 276 279 282 285 288 290 292 294 297 301 303 305 307 308 310 310 312 315 318 321 323 327 331 336 341 347 352 355 359 3 9 16 24 29 28 29 33
Height
5718 5717 5715 5714 5712 5710 5708 5705 5703 5701 5698 5694 5689 5684 5679 5674 5668 5663 5657 5651 5644 5638 5632 5625 5618 5611 5605 5598 5592 5586 5580 5573 5568 5563 5558 5554 5550 5546
5708 5707 5706 5704 5703 5701 5698 5696 5693 5690 5688 5684 5680 5675 5670 5664 5659 5653 5647 5640 5634 5627 5621 5614 5607 5600 5593 5586 5580 5574 5567 5561 5556 5551 5547 5542 5538 5534
5699 5698 5697 5695 5694 5692 5689 5686 5684 5681 5678 5675 5670 5665 5661 5655 5650 5643 5637 5630 5623 5616 5609 5602 5595 5588 5581 5574 5568 5562 5556 5550 5545 5541 5536 5532 5527 5523
5689 5688 5687 5686 5684 5682 5680 5677 5674 5671 5668 5665 5661 5656 5651 5646 5640 5634 5627 5619 5612 5604 5597 5590 5583 5576 5570 5564 5558 5552 5546 5541 5536 5531 5526 5521 5516 5512
5680 5679 5678 5677 5675 5673 5671 5668 5665 5662 5659 5655 5652 5647 5642 5636 5631 5624 5617 5609 5601 5593 5586 5579 5572 5566 5559 5554 5548 5542 5536 5531 5526 5521 5516 5510 5505 5501
5670 5670 5669 5667 5666 5664 5661 5659 5656 5653 5650 5646 5642 5637 5632 5627 5621 5615 5608 5600 5591 5583 5575 5569 5563 5557 5551 5545 5539 5533 5527 5522 5516 5511 5506 5501 5496 5491
5661 5660 5659 5658 5656 5655 5652 5650 5647 5644 5640 5637 5633 5628 5623 5617 5611 5604 5597 5590 5582 5575 5568 5561 5555 5549 5543 5536 5530 5524 5518 5513 5507 5502 5497 5492 5487 5482
5652 5651 5650 5649 5647 5645 5643 5640 5638 5634 5631 5627 5623 5618 5613 5607 5600 5593 5586 5581 5575 5569 5562 5555 5548 5541 5534 5528 5522 5515 5509 5504 5499 5493 5488 5483 5479 5474
5642 5642 5641 5640 5638 5636 5634 5631 5628 5624 5621 5618 5613 5608 5603 5597 5591 5584 5577 5570 5565 5559 5554 5548 5540 5533 5526 5520 5514 5508 5502 5496 5491 5486 5481 5477 5472 5467
5633 5633 5632 5630 5629 5628 5625 5623 5619 5616 5612 5608 5604 5598 5592 5586 5580 5574 5568 5563 5557 5551 5545 5540 5533 5527 5520 5513 5507 5501 5495 5490 5485 5480 5475 5471 5466 5461
5624 5624 5623 5621 5620 5619 5617 5614 5611 5607 5603 5598 5593 5588 5582 5576 5571 5566 5561 5556 5551 5545 5538 5532 5526 5521 5515 5508 5501 5495 5489 5484 5479 5474 5469 5465 5461 5457
5615 5614 5613 5612 5611 5609 5607 5604 5602 5598 5594 5589 5584 5579 5573 5567 5562 5557 5552 5547 5542 5537 5531 5525 5519 5513 5510 5503 5496 5490 5485 5479 5475 5470 5465 5460 5456 5452
5606 5605 5604 5603 5601 5600 5598 5595 5592 5589 5585 5580 5576 5570 5565 5559 5554 5549 5543 5538 5533 5528 5522 5517 5512 5506 5501 5497 5492 5486 5480 5476 5471 5466 5461 5456 5452 5448
5597 5597 5596 5594 5592 5590 5588 5585 5582 5579 5576 5572 5567 5562 5557 5552 5546 5541 5536 5530 5525 5520 5515 5510 5505 5500 5495 5490 5486 5482 5477 5471 5467 5462 5458 5454 5449 5445
5588 5587 5586 5585 5583 5581 5579 5576 5573 5571 5567 5563 5559 5554 5549 5544 5539 5534 5529 5524 5519 5514 5509 5503 5499 5494 5489 5485 5481 5477 5473 5469 5463 5460 5456 5451 5447 5443
5579 5578 5577 5576 5574 5572 5570 5568 5565 5562 5558 5555 5550 5546 5541 5536 5531 5527 5523 5518 5514 5509 5503 5498 5493 5489 5485 5480 5476 5472 5468 5465 5461 5457 5453 5449 5445 5441
5570 5569 5568 5567 5566 5564 5562 5559 5557 5554 5550 5546 5542 5538 5533 5529 5524 5520 5516 5512 5508 5504 5499 5494 5489 5485 5481 5477 5473 5469 5465 5462 5458 5455 5452 5448 5444 5440
5561 5561 5560 5559 5557 5556 5554 5552 5549 5546 5542 5538 5534 5530 5526 5522 5518 5514 5510 5506 5502 5498 5494 5490 5486 5483 5479 5475 5471 5467 5463 5460 5457 5454 5450 5447 5444 5440
5552 5552 5551 5550 5549 5548 5546 5544 5542 5538 5535 5531 5527 5523 5519 5515 5512 5508 5505 5501 5498 5494 5490 5486 5483 5480 5477 5474 5470 5465 5462 5459 5456 5453 5450 5446 5443 5440
5544 5544 5543 5542 5541 5540 5538 5536 5534 5531 5528 5524 5521 5517 5514 5510 5507 5504 5500 5497 5494 5491 5487 5484 5480 5477 5474 5471 5468 5465 5461 5458 5455 5453 5450 5446 5443 5440
5535 5535 5535 5534 5533 5532 5531 5529 5527 5524 5521 5518 5515 5512 5509 5506 5503 5500 5497 5494 5491 5488 5485 5482 5479 5476 5472 5470 5467 5464 5461 5458 5455 5452 5449 5447 5445 5443
5527 5528 5527 5527 5526 5525 5524 5522 5520 5518 5515 5513 5510 5507 5505 5502 5499 5497 5494 5492 5489 5486 5483 5480 5477 5475 5472 5469 5467 5464 5462 5459 5456 5453 5450 5448 5446 5444
5520 5520 5520 5519 5519 5517 5516 5515 5513 5512 5510 5507 5505 5503 5500 5498 5496 5494 5491 5489 5486 5484 5482 5480 5477 5474 5472 5469 5467 5465 5462 5460 5458 5456 5454 5451 5449 5446